Wind_Speed
24 24 25 25 24 23 23 24 23 22 22 23 22 21 22 24 28 15 10 22 16 22 9 6 14 17 19 9 11 4 4 4 5 3 6 12 19 19 21 28 19 6 20 29 35
26 26 26 26 26 25 25 25 25 26 25 24 23 22 21 23 21 16 39 29 23 25 22 15 11 14 8 6 9 7 5 13 13 7 4 19 23 16 19 17 9 24 23 33 36
27 27 28 28 27 26 26 27 27 29 27 25 25 23 20 18 6 8 10 17 21 23 24 18 17 12 13 13 12 9 7 9 17 15 8 10 15 12 15 10 20 25 26 27 33
30 29 29 30 31 31 29 28 30 31 28 26 25 23 18 4 6 2 9 9 16 22 19 17 9 9 10 14 16 7 12 9 4 14 6 7 11 12 14 19 24 25 24 28 24
32 32 30 31 32 32 32 30 32 31 29 27 24 21 5 5 13 20 9 9 11 13 18 14 13 12 13 14 16 12 14 16 15 16 11 12 4 20 15 27 26 23 19 26 23
34 34 33 33 33 35 34 33 36 33 29 25 20 11 2 10 20 18 30 19 13 15 15 16 8 14 9 16 14 17 15 10 15 18 13 21 10 10 23 27 27 25 18 13 14
34 36 36 36 36 37 37 38 38 32 26 19 13 3 6 21 10 12 23 23 16 20 10 21 22 11 7 13 17 16 14 15 6 4 7 22 12 17 22 27 26 24 20 15 12
35 36 36 37 38 40 39 43 37 28 23 13 5 6 9 20 18 17 27 27 20 17 21 22 26 13 7 9 15 12 8 6 8 10 12 15 25 13 17 24 23 23 21 18 15
36 38 39 38 40 42 43 43 36 23 10 5 5 5 10 15 14 31 24 17 22 25 26 19 13 10 8 8 7 7 9 11 15 7 10 9 10 15 14 21 21 22 20 18 15
38 40 41 40 41 41 45 37 16 1 3 3 9 2 10 10 15 23 26 29 9 8 10 9 6 7 9 6 10 8 8 13 14 9 9 11 11 14 8 7 21 20 20 19 18
38 40 41 40 40 40 42 14 4 0 6 8 9 7 21 15 15 17 24 16 9 8 11 11 8 16 13 14 11 14 15 16 19 9 7 5 14 10 12 7 9 20 20 21 21
39 41 42 42 39 29 12 4 15 14 12 15 25 26 34 28 13 15 29 13 12 14 11 10 18 12 12 11 18 20 19 20 14 12 12 13 16 14 11 16 12 19 21 22 21
39 42 42 44 37 4 22 21 19 24 7 15 23 18 25 19 23 16 14 17 15 17 16 17 9 16 18 17 18 21 20 16 10 9 9 10 3 4 14 6 14 19 22 22 24
39 41 40 49 7 27 13 27 23 22 5 8 8 10 13 15 15 25 22 15 11 18 18 14 17 18 22 21 19 18 22 20 19 10 14 15 7 9 15 14 15 18 21 22 22
39 40 39 39 20 10 13 24 26 15 6 6 7 11 11 21 9 24 24 18 18 17 10 19 18 20 21 23 19 21 13 19 21 15 9 12 4 10 19 18 21 21 23 22 22
40 42 43 26 15 26 28 29 17 2 9 7 8 8 13 20 18 3 25 19 9 15 17 18 11 19 20 16 21 16 14 17 16 12 10 15 16 6 14 28 22 20 19 24 22
41 43 42 25 8 13 18 8 2 7 8 8 5 11 17 13 22 24 19 25 21 17 20 19 22 19 20 18 14 19 8 12 12 11 9 12 13 9 21 16 26 24 19 19 21
40 44 34 24 20 16 7 2 10 8 13 19 12 12 14 13 19 24 21 24 25 20 8 15 18 23 13 20 15 16 16 12 13 14 9 9 12 13 18 14 23 25 16 22 19
40 28 23 28 23 23 6 9 6 8 9 14 20 10 15 16 14 19 23 20 23 26 20 15 18 8 24 20 18 11 21 14 5 8 6 8 9 11 15 19 16 17 19 22 19
30 15 18 21 17 17 8 14 9 13 24 17 9 11 10 16 15 16 21 20 21 25 24 10 7 20 21 22 17 19 6 11 14 15 19 16 10 12 8 18 14 12 13 17 17
9 6 19 20 16 9 14 10 16 20 23 14 18 24 24 24 18 22 14 23 23 25 27 25 17 18 15 19 23 12 17 12 7 13 12 10 16 8 10 16 16 18 20 17 29
8 5 24 30 7 8 13 18 22 23 22 23 17 23 26 25 28 24 24 20 17 27 24 24 15 16 25 17 24 24 13 11 9 6 4 8 15 9 13 7 26 30 20 11 9
5 9 27 16 5 9 13 21 22 22 20 21 22 24 21 25 22 21 25 28 24 21 24 16 19 11 17 17 19 26 19 14 15 5 12 5 14 18 17 3 6 4 7 6 8
4 5 5 7 6 13 15 12 14 16 18 20 18 18 17 20 16 17 24 21 24 23 16 10 19 27 19 19 5 9 22 20 17 13 16 22 14 18 5 7 14 14 11 8 10
3 5 10 8 13 19 15 6 18 13 12 14 11 18 22 14 23 12 14 21 20 24 14 5 19 20 26 19 14 24 14 25 22 21 16 13 16 14 10 9 9 10 9 9 7
3 4 5 9 14 17 15 14 16 14 11 14 10 14 17 10 16 20 19 17 11 15 19 12 8 12 17 26 25 26 19 20 25 22 19 17 19 6 6 11 13 9 14 12 7
6 10 2 6 10 11 11 17 20 3 7 12 16 14 18 17 10 17 19 21 21 24 22 10 5 3 8 7 5 20 28 18 11 17 18 17 18 7 9 6 8 4 4 6 8
Wind_Direction
0 0 358 353 348 344 340 336 335 331 327 324 320 321 321 319 314 308 245 246 245 254 227 218 188 212 220 141 158 162 119 285 293 278 147 99 108 117 123 132 143 185 145 156 151
358 356 353 351 348 344 340 336 335 334 327 323 319 317 321 325 319 265 269 255 240 257 220 231 215 201 216 183 178 163 175 191 189 220 255 129 132 140 142 127 133 128 142 151 147
356 353 350 347 345 342 337 334 332 330 325 320 317 316 322 332 280 246 303 228 221 242 231 232 245 251 235 232 194 219 221 170 209 261 227 147 128 129 133 135 150 140 152 158 154
355 352 349 346 343 340 337 331 328 326 321 318 315 312 321 329 291 147 103 138 211 228 223 240 249 258 253 256 244 183 246 215 194 195 177 130 138 142 162 150 147 143 149 158 162
351 350 347 343 340 336 333 328 325 322 317 315 314 315 339 231 243 236 260 188 181 190 213 222 226 237 236 254 262 246 235 238 225 168 203 145 198 165 147 137 138 141 162 155 167
349 347 344 340 337 334 330 325 323 319 312 311 312 317 241 248 259 255 244 211 211 199 212 218 228 227 246 256 264 270 290 273 236 173 176 143 178 119 140 141 143 147 165 170 178
346 344 341 338 336 332 328 323 319 313 311 307 302 246 252 239 246 285 207 212 224 227 217 224 237 256 252 264 273 283 290 291 236 176 162 89 8 144 148 143 147 152 162 181 188
345 342 338 335 333 330 327 321 315 307 302 294 267 176 250 260 267 258 238 255 216 234 217 230 228 246 258 284 285 279 293 290 264 198 156 102 196 219 149 144 152 157 165 179 192
345 343 339 335 332 330 327 318 314 303 282 247 161 215 264 282 225 232 233 237 207 221 216 231 228 223 262 255 291 281 258 269 260 189 157 110 157 173 159 152 157 161 168 179 189
345 343 339 336 331 330 327 321 320 38 132 175 268 292 257 253 218 212 226 221 210 221 240 231 225 231 217 209 225 239 247 255 254 192 104 122 177 153 161 126 161 164 170 178 188
343 341 339 336 330 329 331 342 314 103 230 222 188 238 289 281 229 194 206 203 195 224 216 216 212 223 217 217 231 246 247 250 250 176 93 124 172 199 186 173 203 170 172 177 186
341 341 339 334 328 327 328 263 297 309 289 254 251 243 252 264 280 233 182 183 196 220 206 220 223 220 233 220 222 245 254 265 295 166 115 176 187 215 222 204 187 184 178 179 181
340 341 340 335 329 8 324 282 309 335 278 278 235 235 225 231 245 225 181 184 192 214 214 220 226 214 231 228 224 228 242 258 244 246 120 158 281 234 252 177 200 195 180 183 181
338 340 340 339 357 329 298 342 347 325 287 268 207 236 212 220 244 238 196 204 215 211 227 224 225 219 219 232 225 227 231 248 257 247 207 175 214 223 219 198 212 205 186 185 186
336 336 336 338 292 297 302 330 323 312 302 243 195 152 156 180 141 226 218 201 206 212 190 225 214 228 226 223 231 235 228 236 253 256 158 230 224 206 194 208 225 190 191 189 185
332 332 332 334 304 276 309 310 295 250 244 273 146 161 141 201 230 318 205 229 229 219 224 236 220 229 234 239 221 243 230 249 253 253 225 206 211 248 187 198 203 194 190 187 190
329 327 320 294 242 294 320 309 198 229 270 232 186 168 191 180 210 235 212 211 212 205 222 232 232 244 220 235 225 219 216 238 249 241 237 204 204 204 237 209 196 195 196 187 184
328 323 313 271 271 294 301 276 234 235 223 298 312 290 209 207 204 212 232 200 212 226 197 218 237 227 222 221 221 211 213 223 221 230 250 244 205 224 208 209 183 183 189 183 194
328 320 291 279 250 241 239 225 208 204 278 357 337 313 268 205 208 208 224 206 205 209 220 206 233 232 227 238 213 231 215 222 266 257 263 236 267 262 205 222 190 178 178 188 199
324 301 268 287 251 196 225 238 261 296 322 333 313 286 317 320 324 206 212 221 206 203 213 248 251 219 240 223 236 209 191 203 223 231 245 251 245 241 230 204 174 182 197 207 189
306 303 279 314 234 204 230 239 261 272 283 294 293 284 287 295 293 289 288 223 216 201 203 216 240 253 227 218 214 226 219 226 194 221 234 240 249 247 232 179 176 196 198 191 202
303 288 284 327 319 225 245 254 261 265 268 276 275 281 285 290 290 285 278 266 268 206 209 201 213 237 249 257 208 216 206 203 223 263 253 237 256 261 242 176 193 191 189 201 173
300 292 280 275 255 265 278 272 270 272 276 286 292 288 285 275 283 272 283 286 282 295 219 200 212 220 248 261 253 209 210 200 219 168 235 192 251 251 256 151 116 157 239 216 225
294 310 299 333 279 279 285 308 325 321 318 325 318 327 333 302 283 289 296 288 292 275 285 317 208 211 222 233 235 225 206 202 198 219 236 242 259 271 282 219 181 199 225 174 229
268 265 313 306 321 327 311 231 292 299 331 351 332 351 333 318 316 310 345 334 322 315 314 310 245 207 214 221 224 240 233 204 205 210 206 235 230 242 236 218 212 189 193 210 194
272 316 337 300 303 314 304 291 305 345 333 315 305 333 327 323 292 316 330 325 299 333 341 328 282 190 206 211 219 241 241 237 209 216 228 232 251 219 229 207 208 209 188 175 194
247 271 280 294 300 298 301 322 316 13 305 314 315 317 310 301 307 281 283 277 266 279 288 280 349 264 206 175 233 236 231 245 245 216 202 214 235 222 263 224 184 206 235 158 226
Height
805 802 799 795 791 787 784 780 777 774 770 767 764 762 759 755 750 747 742 735 735 737 740 742 745 749 751 763 768 770 801 801 772 762 744 727 741 733 735 749 762 755 768 778 786
804 801 797 793 789 785 781 778 775 772 768 765 762 759 757 753 747 739 721 726 729 731 735 738 740 741 748 749 760 768 784 768 739 738 737 729 734 739 745 757 764 764 772 780 785
804 800 796 792 787 783 779 775 772 769 765 762 759 756 755 752 749 722 713 715 723 727 731 733 734 736 743 735 741 747 764 738 738 723 726 728 730 728 743 762 756 764 772 778 783
802 798 794 789 785 781 777 772 768 765 761 759 756 753 752 752 759 716 715 715 720 724 728 729 731 742 745 743 722 746 725 720 715 716 720 728 724 736 735 745 745 752 760 772 780
801 796 792 788 782 777 773 769 764 760 757 755 752 751 751 751 731 717 717 718 718 721 723 726 733 735 745 730 723 730 720 709 704 710 717 711 725 732 736 733 742 753 761 769 776
801 796 791 785 780 774 769 764 760 756 752 750 749 749 751 751 709 711 712 715 716 717 718 721 722 720 726 724 727 711 709 707 702 711 714 720 725 727 735 735 744 752 762 764 768
800 794 789 784 778 771 764 758 753 750 747 746 745 747 747 719 706 707 707 709 711 713 714 715 716 721 717 727 709 711 726 710 702 701 717 715 759 741 730 733 745 753 760 765 766
799 793 786 780 774 767 759 752 746 743 742 742 742 746 736 702 700 703 706 707 707 708 711 711 712 714 720 713 716 727 727 748 710 702 707 724 782 746 727 735 746 750 756 763 765
798 791 783 776 769 762 753 744 739 735 736 738 741 742 724 695 695 691 698 701 702 704 706 707 707 717 719 738 752 737 761 747 727 694 705 723 762 727 724 731 741 746 752 758 763
796 790 782 774 765 758 748 739 732 734 735 739 740 745 708 693 683 687 692 695 698 701 705 708 715 731 731 745 774 762 752 738 733 708 714 733 742 726 725 734 734 740 745 752 758
796 788 780 771 763 756 747 738 735 736 734 726 720 708 688 682 679 681 684 691 695 703 725 714 735 739 734 728 728 730 734 734 711 697 726 733 735 729 723 731 739 733 738 744 749
793 786 778 767 758 752 750 749 739 736 726 709 699 697 689 686 692 675 678 695 702 720 712 724 731 718 712 715 724 726 733 730 711 691 714 735 736 725 720 719 726 728 731 735 740
791 785 777 766 754 750 750 744 737 733 733 695 680 679 676 681 686 676 672 682 699 711 710 724 713 705 711 716 723 724 730 725 728 704 704 735 747 744 722 712 717 718 718 724 729
789 783 777 766 753 751 746 740 735 735 748 696 670 654 662 672 680 663 661 674 688 704 703 709 697 703 710 714 711 733 702 708 713 722 752 721 768 749 728 719 716 716 715 717 721
788 782 777 776 769 758 747 741 736 734 770 658 648 632 639 664 659 660 654 665 687 692 697 701 699 702 707 705 697 707 696 704 704 717 722 722 746 738 720 729 719 708 706 707 711
784 779 775 769 768 751 748 740 738 757 753 672 635 647 658 663 659 645 658 657 663 682 682 685 671 681 687 682 683 684 699 702 704 714 747 725 737 740 723 711 703 693 694 695 702
781 774 770 769 757 750 748 742 759 754 677 665 654 644 651 661 664 662 672 679 688 706 703 687 682 671 668 690 681 687 718 746 755 747 752 714 726 722 691 685 680 684 687 687 693
779 769 757 754 749 750 751 753 758 700 695 648 659 652 659 649 653 657 664 677 668 679 698 711 715 674 659 674 692 691 704 732 769 753 740 708 725 703 665 656 656 662 672 676 679
775 764 753 737 742 748 754 754 721 704 685 692 677 670 656 644 646 653 657 662 658 664 696 699 697 655 654 652 664 692 696 684 727 720 740 711 695 669 658 655 657 664 663 671 672
775 763 744 732 737 744 747 736 715 696 695 708 722 692 691 685 687 650 654 640 648 646 655 672 700 661 651 648 650 664 667 712 701 748 748 716 713 703 676 664 663 665 666 661 663
775 762 732 731 730 730 734 729 721 708 703 707 706 701 695 686 685 679 669 629 624 635 639 656 675 671 652 657 669 671 676 683 692 701 730 740 707 662 662 655 658 656 649 647 647
777 766 732 735 741 723 726 723 721 711 704 698 694 695 694 688 680 677 666 651 616 614 639 638 662 681 663 638 628 641 663 678 707 724 711 713 700 643 643 642 629 631 635 637 639
778 763 734 736 740 730 719 711 707 706 703 700 693 686 680 679 687 664 654 629 623 631 620 623 646 683 672 650 634 641 643 655 664 691 710 730 689 638 634 640 635 639 645 637 638
783 765 742 732 727 728 726 726 728 714 709 703 700 695 690 679 670 661 658 633 620 615 614 624 617 635 659 651 643 650 639 641 659 685 684 681 681 660 642 643 627 636 632 631 639
783 770 759 755 739 743 738 747 728 720 712 716 706 713 715 707 695 678 673 666 645 631 616 622 627 611 616 623 625 631 633 631 648 651 679 669 673 658 647 643 634 624 626 634 632
784 773 767 765 751 744 734 726 717 715 718 718 723 718 718 719 714 709 699 696 683 653 660 640 632 609 618 609 615 627 619 622 625 633 643 649 652 631 629 627 629 626 622 625 631
777 775 776 767 754 745 736 729 729 725 724 721 715 714 716 709 705 703 696 688 683 677 674 660 645 630 634 612 624 643 613 620 619 613 626 649 630 628 632 629 626 625 621 618 625